Flag for Russia Weather past 2 weeks in Yuzhno-Sakhalinsk, Russia

Now
-8 °F

Snow flurries. Scattered clouds.


Feels Like: -8 °F
Forecast: 1 / 18 °F
Wind: No wind

Location: Yuzhno Airport-Sakhalinsk

Current Time: Jan 29, 2015 at 8:40:15 AM

Latest Report: Jan 29, 2015 at 8:00 AM


Visibility: 4 mi

Pressure: 30.07 "Hg

Humidity: 84%

Dew point: -11 °F

Location of Yuzhno-SakhalinskLocation

Historic Weather in Yuzhno-Sakhalinsk — Graph

°F

Yuzhno-Sakhalinsk temperature yesterday

Maximum temperature yesterday: 18 °F (at 12:00 PM)
Minimum temperature yesterday: -9 °F (at 7:30 AM)
Average temperature yesterday: 6 °F

Past Weeks' High & Low Weather Summary

 TemperatureHumidityPressure
High36 °F (Jan 27, 10:30 AM)100% (Jan 22, 9:00 AM)30.36 "Hg (Jan 22, 9:00 AM)
Low-18 °F (Jan 19, 6:00 AM)50% (Jan 25, 3:00 PM)29.53 "Hg (Jan 27, 10:00 AM)
Average12 °F81%29.96 "Hg
* Reported Jan 14 7:00 AM — Jan 29 7:30 AM, Yuzhno-Sakhalinsk, Weather by CustomWeather, © 2014

Note: Actual official high and low records may vary slightly from our data, if they occured in-between our weather recording intervals... More about our weather records

Advertising

Yuzhno-Sakhalinsk weather history for previous 24 hours

 ConditionsComfort  
Time TempWeatherWind HumidityBarometerVisibility
7:30 AM
Jan 29
-6 °FSnow flurries. Passing clouds.No wind84%30.07 "Hg4 mi
7:00 AM-6 °FSnow showers. Passing clouds.No wind84%30.07 "Hg2 mi
6:30 AM-6 °FSnow flurries. Passing clouds.No wind84%30.07 "Hg3 mi
6:00 AM-8 °FSnow flurries. Passing clouds.No wind84%30.04 "Hg3 mi
5:00 AM-6 °FSnow flurries. Passing clouds.No wind84%30.04 "Hg4 mi
4:00 AM-8 °FPassing clouds.No wind84%30.01 "HgN/A
3:00 AM-8 °FPassing clouds.No wind77%30.01 "HgN/A
2:00 AM-6 °FPassing clouds.No wind77%29.98 "HgN/A
1:00 AM0 °FPassing clouds.No wind84%29.95 "HgN/A
12:00 AM-2 °FPassing clouds.No wind84%29.95 "HgN/A
11:00 PM
Jan 28
-2 °FPassing clouds.1 mph84%29.95 "HgN/A
10:00 PM1 °FPassing clouds.No wind85%29.95 "HgN/A
9:30 PM3 °FPassing clouds.No wind92%29.92 "HgN/A
9:00 PM7 °FSnow flurries. Passing clouds.3 mph78%29.92 "Hg5 mi
8:30 PM9 °FPassing clouds.1 mph78%29.89 "HgN/A
8:00 PM10 °FPassing clouds.3 mph79%29.89 "HgN/A
7:30 PM9 °FPassing clouds.1 mph72%29.89 "HgN/A
7:00 PM10 °FPassing clouds.3 mph72%29.86 "HgN/A
6:30 PM12 °FPassing clouds.3 mph67%29.86 "HgN/A
6:00 PM12 °FPassing clouds.6 mph67%29.83 "HgN/A
5:30 PM12 °FPassing clouds.6 mph67%29.83 "HgN/A
5:00 PM14 °FScattered clouds.3 mph62%29.80 "HgN/A
4:30 PM14 °FScattered clouds.8 mph62%29.80 "HgN/A
4:00 PM14 °FScattered clouds.6 mph67%29.80 "HgN/A
3:30 PM14 °FScattered clouds.8 mph67%29.77 "HgN/A
3:00 PM16 °FSnow flurries. Scattered clouds.10 mph67%29.77 "HgN/A
2:30 PM16 °FScattered clouds.10 mph62%29.74 "HgN/A
2:00 PM16 °FScattered clouds.13 mph67%29.74 "HgN/A
1:30 PM16 °FScattered clouds.3 mph62%29.74 "HgN/A
1:00 PM16 °FScattered clouds.3 mph67%29.74 "HgN/A
12:30 PM18 °FSnow flurries. Scattered clouds.No wind68%29.74 "Hg5 mi
12:00 PM18 °FScattered clouds.No wind68%29.77 "HgN/A
11:30 AM14 °FScattered clouds.No wind79%29.77 "HgN/A
11:00 AM12 °FPassing clouds.No wind85%29.77 "Hg5 mi
10:30 AM7 °FPassing clouds.No wind92%29.74 "Hg5 mi
10:00 AM3 °FPassing clouds.No wind85%29.74 "Hg5 mi
9:30 AM0 °FPassing clouds.No wind84%29.74 "Hg5 mi
9:00 AM-4 °FPassing clouds.No wind84%29.74 "Hg5 mi
8:30 AM-9 °FPassing clouds.1 mph84%29.74 "Hg5 mi
8:00 AM-9 °FScattered clouds.1 mph77%29.71 "Hg4 mi
Weather by CustomWeather, © 2014

See weather overviewHow to use our weather pages